Weather reports worldwide

Advertisment
Oviedo, Spain (8015): temperature & dewpoint: 08.10.2019 13:00:00 - 14.10.2019 13:00:00 (CEST)Oviedo, Spain (8015): wind speed: 08.10.2019 13:00:00 - 14.10.2019 13:00:00 (CEST)Oviedo, Spain (8015): wind direction: 08.10.2019 13:00:00 - 14.10.2019 13:00:00 (CEST)Oviedo, Spain (8015): reduced air pressure: 08.10.2019 13:00:00 - 14.10.2019 13:00:00 (CEST)Oviedo, Spain (8015): visibility: 08.10.2019 13:00:00 - 14.10.2019 13:00:00 (CEST)Oviedo, Spain (8015): precipitation: 08.10.2019 13:00:00 - 14.10.2019 13:00:00 (CEST)
Date & Time tt [°C] td [°C] ff [km/h] ff [kn] dd ppp [hPa] vv [km] rr [mm]
14.10.2019 13:00:00 12,7 12,4 5 3 WNW 1008,5 6 0,0
14.10.2019 12:00:00 13,1 12,2 5 3 NW 1007,5 20 0,0
14.10.2019 11:00:00 12,3 11,5 5 3 S 1007,2 20 -
14.10.2019 10:00:00 11,8 11,3 8 4 ESE 1006,2 13 0,6
14.10.2019 09:00:00 11,5 11,2 8 4 SE 1006,4 17 0,0
14.10.2019 08:00:00 11,6 11,3 5 3 S 1006,7 15 -
14.10.2019 07:00:00 11,8 10,4 5 3 N 1007,0 7 1,0
14.10.2019 06:00:00 11,9 10,3 5 3 NNW 1007,2 20 0,0
14.10.2019 05:00:00 11,9 11,9 11 6 NW 1007,7 20 -
14.10.2019 04:00:00 12,6 12,6 8 4 WNW 1007,7 0,2 0,0
14.10.2019 03:00:00 13,6 13,6 9 5 NW 1007,8 0,1 0,0
14.10.2019 02:00:00 13,8 13,8 5 3 WNW 1008,1 0,1 -
14.10.2019 01:00:00 13,9 13,9 9 5 WNW 1008,8 0,1 0,0
14.10.2019 00:00:00 14,0 14,0 4 2 NW 1008,8 0,1 0,0
13.10.2019 23:00:00 14,2 14,2 8 4 NE 1009,2 4,1 -
13.10.2019 22:00:00 14,2 14,2 5 3 NE 1009,8 1,7 0,2
13.10.2019 21:00:00 14,4 14,2 8 4 E 1010,2 3,7 0,0
13.10.2019 20:00:00 14,0 13,8 4 2 WNW 1010,7 0,6 -
13.10.2019 19:00:00 14,8 14,2 8 4 NNE 1010,7 3,5 0,0
13.10.2019 18:00:00 15,7 14,1 13 7 NE 1010,6 12 0,0
13.10.2019 17:00:00 16,4 14,1 11 6 NE 1010,5 20 -
13.10.2019 16:00:00 17,1 14,4 8 4 ENE 1010,3 20 0,0
13.10.2019 15:00:00 19,1 15,0 11 6 E 1010,4 20 0,0
13.10.2019 14:00:00 19,4 15,3 9 5 E 1010,4 20 -
13.10.2019 13:00:00 18,5 14,2 11 6 NW 1010,6 20 0,0
13.10.2019 12:00:00 17,4 13,3 11 6 NW 1010,3 19 0,0
13.10.2019 11:00:00 19,7 11,2 9 5 SE 1008,8 20 -
13.10.2019 10:00:00 18,4 11,0 5 3 S 1007,9 20 0,0
13.10.2019 09:00:00 16,3 10,6 9 5 S 1007,1 20 0,0
13.10.2019 08:00:00 14,4 13,1 8 4 W 1007,3 15 -
13.10.2019 07:00:00 13,9 13,1 8 4 W 1006,5 14 0,0
13.10.2019 06:00:00 13,6 13,1 8 4 WNW 1006,4 8 0,0
13.10.2019 05:00:00 12,9 12,9 8 4 W 1006,4 1,9 -
13.10.2019 04:00:00 13,8 13,5 2 1 W 1006,6 2,4 0,0
13.10.2019 03:00:00 13,8 13,6 4 2 SW 1007,4 7 0,0
13.10.2019 02:00:00 14,3 14,0 8 4 S 1007,7 - -
13.10.2019 01:00:00 14,6 14,1 4 2 SW 1008,6 4,3 0,0
13.10.2019 00:00:00 15,1 14,5 5 3 W 1008,6 8 0,0
12.10.2019 23:00:00 15,4 14,4 4 2 NW 1008,7 9 -
12.10.2019 22:00:00 15,9 14,6 5 3 WSW 1009,0 11 0,0
12.10.2019 21:00:00 16,7 14,7 5 3 W 1009,1 14 0,0
12.10.2019 20:00:00 17,8 14,7 5 3 NE 1008,5 20 -
12.10.2019 19:00:00 18,4 14,5 9 5 ENE 1008,1 19 0,0
12.10.2019 18:00:00 19,2 14,2 8 4 NE 1008,7 20 0,0
12.10.2019 17:00:00 20,1 14,2 9 5 NE 1008,5 20 -
12.10.2019 16:00:00 21,0 14,9 9 5 ENE 1008,7 20 0,0
12.10.2019 15:00:00 20,6 14,9 8 4 ENE 1009,2 18 0,0
12.10.2019 14:00:00 19,3 14,5 5 3 E 1010,4 15 -
12.10.2019 13:00:00 16,9 14,5 5 3 SE 1011,6 8 0,0
12.10.2019 12:00:00 14,9 14,1 4 2 WSW 1012,5 - 0,0
12.10.2019 11:00:00 14,2 14,0 8 4 NW 1012,5 2,0 -
12.10.2019 10:00:00 14,2 14,2 4 2 W 1012,2 1,0 0,0
12.10.2019 09:00:00 14,5 14,2 2 1 SSW 1011,4 0,8 0,0
12.10.2019 08:00:00 15,0 15,0 4 2 SSW 1011,8 1,5 -
12.10.2019 07:00:00 14,6 14,4 4 2 NW 1011,8 0,3 0,0
12.10.2019 06:00:00 14,9 14,4 2 1 ESE 1011,7 3,5 0,0
12.10.2019 05:00:00 15,0 14,5 2 1 SE 1012,1 3,0 -
12.10.2019 04:00:00 15,0 14,5 4 2 SSW 1012,7 2,4 0,0
12.10.2019 03:00:00 15,1 14,5 4 2 ESE 1013,4 2,4 0,0
12.10.2019 02:00:00 15,2 14,4 4 2 E 1013,9 3,8 -
12.10.2019 01:00:00 15,3 14,3 5 3 E 1014,4 4,3 0,0
12.10.2019 00:00:00 15,4 14,4 4 2 NE 1015,0 4,7 0,0
11.10.2019 23:00:00 15,5 14,2 5 3 E 1015,2 6 -
11.10.2019 22:00:00 15,5 14,2 5 3 ENE 1015,1 7 0,0
11.10.2019 21:00:00 15,4 14,1 8 4 ENE 1015,1 8 0,0
11.10.2019 20:00:00 16,7 14,3 9 5 ENE 1014,7 10 -
11.10.2019 19:00:00 18,3 15,0 8 4 ENE 1014,0 14 0,0
11.10.2019 18:00:00 19,6 15,3 9 5 ENE 1013,8 16 0,0
11.10.2019 17:00:00 20,8 15,1 9 5 E 1013,6 20 -
11.10.2019 16:00:00 21,6 14,3 9 5 ENE 1013,9 20 0,0
11.10.2019 15:00:00 22,8 13,0 9 5 E 1014,3 20 0,0
11.10.2019 14:00:00 22,4 12,6 9 5 E 1015,4 20 -
11.10.2019 13:00:00 20,4 11,1 4 2 ENE 1016,3 20 0,0
11.10.2019 12:00:00 17,9 11,7 2 1 NNE 1016,9 18 0,0
11.10.2019 11:00:00 13,9 11,2 5 3 S 1017,8 20 -
11.10.2019 10:00:00 12,0 9,9 9 5 S 1017,9 20 0,0
11.10.2019 09:00:00 10,9 9,3 8 4 S 1017,6 20 0,0
11.10.2019 08:00:00 11,1 9,7 8 4 S 1017,5 20 -
11.10.2019 07:00:00 11,0 9,6 11 6 S 1017,4 20 0,0
11.10.2019 06:00:00 10,9 10,1 8 4 S 1017,6 19 0,0
11.10.2019 05:00:00 11,3 10,4 8 4 S 1017,8 16 -
11.10.2019 04:00:00 11,5 10,7 11 6 S 1018,1 16 0,0
11.10.2019 03:00:00 11,9 11,0 5 3 S 1018,8 15 0,0
11.10.2019 02:00:00 12,0 11,1 5 3 S 1019,4 13 -
11.10.2019 01:00:00 12,6 11,7 8 4 SSW 1019,8 15 0,0
11.10.2019 00:00:00 12,8 11,5 5 3 S 1020,0 15 0,0
10.10.2019 23:00:00 13,2 11,6 4 2 WSW 1020,2 14 -
10.10.2019 22:00:00 13,9 11,4 2 1 W 1020,2 19 0,0
10.10.2019 21:00:00 14,9 11,7 5 3 ESE 1020,3 19 0,0
10.10.2019 20:00:00 15,9 11,7 5 3 E 1019,8 15 -
10.10.2019 19:00:00 17,1 11,4 5 3 ENE 1019,8 20 0,0
10.10.2019 18:00:00 18,3 11,1 8 4 ENE 1019,9 20 0,0
10.10.2019 17:00:00 19,2 11,5 11 6 ENE 1020,2 20 -
10.10.2019 16:00:00 20,1 10,5 8 4 ENE 1020,6 20 0,0
10.10.2019 15:00:00 20,3 9,8 8 4 ENE 1021,3 20 0,0
10.10.2019 14:00:00 19,0 10,0 5 3 ENE 1022,2 20 -
10.10.2019 13:00:00 18,0 10,4 8 4 E 1022,9 20 0,0
10.10.2019 12:00:00 15,9 10,2 2 1 SE 1023,6 20 0,0
10.10.2019 11:00:00 11,7 9,9 5 3 SSW 1024,6 20 -
10.10.2019 10:00:00 10,2 9,0 5 3 S 1024,7 19 0,0
10.10.2019 09:00:00 9,6 8,8 8 4 S 1024,4 14 0,0
10.10.2019 08:00:00 9,9 9,1 8 4 S 1024,1 15 -
10.10.2019 07:00:00 10,3 9,7 8 4 S 1023,9 13 0,0
10.10.2019 06:00:00 10,8 10,3 5 3 S 1023,8 9 0,0
10.10.2019 05:00:00 11,3 10,7 8 4 SSW 1023,9 12 -
10.10.2019 04:00:00 11,8 10,9 4 2 WSW 1023,8 13 0,0
10.10.2019 03:00:00 12,4 11,0 4 2 S 1023,9 14 0,0
10.10.2019 02:00:00 13,0 11,2 4 2 SSW 1024,1 17 -
10.10.2019 01:00:00 12,9 11,1 2 1 WSW 1024,5 17 0,0
10.10.2019 00:00:00 13,0 11,1 4 2 W 1024,6 17 0,0
09.10.2019 23:00:00 13,0 11,1 4 2 S 1024,3 17 -
09.10.2019 22:00:00 13,6 11,1 4 2 SSW 1024,2 16 0,0
09.10.2019 21:00:00 13,9 10,9 8 4 SE 1023,9 18 0,0
09.10.2019 20:00:00 14,9 10,3 5 3 NNW 1023,5 20 -
09.10.2019 19:00:00 16,2 9,6 8 4 NNE 1022,9 20 0,0
09.10.2019 18:00:00 17,1 10,0 11 6 N 1022,6 20 0,0
09.10.2019 17:00:00 17,8 10,4 11 6 N 1022,6 20 -
09.10.2019 16:00:00 18,0 9,3 13 7 N 1022,7 20 0,0
09.10.2019 15:00:00 18,8 6,9 8 4 WSW 1022,3 20 0,0
09.10.2019 14:00:00 18,0 6,5 13 7 W 1022,8 20 -
09.10.2019 13:00:00 17,1 9,0 8 4 W 1023,4 20 0,0
09.10.2019 12:00:00 14,7 10,1 4 2 WNW 1023,9 20 0,0
09.10.2019 11:00:00 13,3 11,2 5 3 W 1024,1 20 -
09.10.2019 10:00:00 11,7 10,8 8 4 SW 1023,7 20 0,0
09.10.2019 09:00:00 11,5 10,9 11 6 SW 1023,1 19 0,0
09.10.2019 08:00:00 11,1 10,8 9 5 SSW 1022,8 18 -
09.10.2019 07:00:00 11,3 11,0 8 4 SSW 1022,3 2,4 0,0
09.10.2019 06:00:00 11,8 11,0 5 3 WNW 1022,2 20 0,0
09.10.2019 05:00:00 12,1 10,8 5 3 WSW 1021,7 20 -
09.10.2019 04:00:00 12,5 12,0 8 4 SSW 1021,8 20 0,0
09.10.2019 03:00:00 12,6 11,8 2 1 NW 1022,0 20 0,0
09.10.2019 02:00:00 12,7 11,9 4 2 SW 1021,6 20 -
09.10.2019 01:00:00 12,8 12,3 4 2 SSW 1021,5 20 0,0
09.10.2019 00:00:00 12,8 12,3 4 2 S 1022,3 20 0,0
08.10.2019 23:00:00 12,6 12,6 9 5 W 1022,5 15 -
08.10.2019 22:00:00 13,3 13,3 8 4 NW 1022,1 0,4 0,2
08.10.2019 21:00:00 13,8 13,5 4 2 WNW 1021,8 1,0 0,2
08.10.2019 20:00:00 14,4 13,9 4 2 SSW 1021,3 3,0 -
08.10.2019 19:00:00 14,3 14,0 4 2 S 1021,1 4,0 0,8
08.10.2019 18:00:00 14,0 13,5 5 3 WNW 1021,2 1,8 0,4
08.10.2019 17:00:00 14,7 13,4 11 6 NNW 1020,8 10 -
08.10.2019 16:00:00 16,0 15,0 9 5 N 1020,6 6 0,0
08.10.2019 15:00:00 16,7 15,1 13 7 NNW 1020,1 11 0,0
08.10.2019 14:00:00 18,1 15,7 22 12 NNW 1019,0 15 -
08.10.2019 13:00:00 24,1 14,5 5 3 S 1017,2 20 0,0

tt = temperature
td = dewpoint
ff = wind speed
dd = wind direction
ppp = reduced air pressure
vv = visibility
rr = precipitation

Next stations